Regional Weather Roundup
Issued by NWS Goodland, KS

Home | Current Version | Previous Version | Text Only | Print | Product List | Glossary On
Versions: 1 2 3 4 5 6 7 8 9 10 11 12 13 14 15 16 17 18 19 20 21 22 23 24 25 26 27 28 29 30 31 32 33 34 35 36 37 38 39 40 41 42 43 44 45 46 47 48 49 50
000
ASUS43 KGLD 261459
RWRGLD

GOODLAND FORECAST AREA HOURLY WEATHER ROUNDUP
NATIONAL WEATHER SERVICE GOODLAND KS
800 AM MST FRI DEC 26 2014

...OFFICIAL OBSERVATIONS...

CITY           SKY/WX    TMP DP  RH WIND       PRES   REMARKS
GOODLAND KS    CLOUDY    23  21  92 N16       29.93F FOG     WCI  10
HILL CITY KS   CLOUDY    28  22  78 N14       30.01R WCI  17
IMPERIAL NEB   LGT SNOW  23  18  81 N16       30.01R WCI  10
MCCOOK NEB     CLOUDY    26  20  77 N18       30.01R WCI  13
AKRON CO       LGT SNOW  16  14  92 NE15      29.95S FOG     WCI   1
BURLINGTON CO  LGT SNOW  21  18  88 N17       29.92S FOG     WCI   7
LIMON CO       LGT SNOW  18  16  93 N12       29.91R FOG     WCI   5
$$

...UNOFFICIAL OBSERVATIONS...

CITY           SKY/WX    TMP DP  RH WIND       PRES   REMARKS
COLBY KS       CLOUDY    25  25 100 N20G25    29.96F FOG     WCI  11
NORTON KS      CLOUDY    28  19  69 N17       29.98R WCI  16
SHARON SPRINGS   N/A     24  22  92 N12G18      N/A  WCI  13
KIT CARSON CO    N/A     21  18  89 MISG        N/A
YUMA CO          N/A     18  14  84 N12         N/A  WCI   6
$$


USA.gov is the U.S. government's official web portal to all federal, state and local government web resources and services.